Location: Chimay
(50.0486°N, 4.3171°E)
Time: 08:15:30
(UTC+00:00)

Cosmos 1459 Rocket - Pass Details

Date: 08 August 2020
Orbit: 936 x 1000 km, 83.0° (Epoch: 26 September)

Event Time Altitude Azimuth Distance (km) Brightness Sun altitude
Exits shadow 22:42:32 30° 212° (SSW) 1,681 4.9 -22.6°
Maximum altitude 22:45:42 64° 283° (WNW) 1,096 4.3 -22.7°
Drops below altitude 10° 22:52:02 10° 5° (N) 2,778 7.3 -23.0°
Sets 22:54:38 0° 8° (N) 3,735 8.2 -23.1°
